Regional Weather Roundup
Issued by NWS

Home | Current Version | Previous Version | Graphics & Text | Print | Product List | Glossary On
Versions: 1 2 3 4 5 6 7 8 9 10 11 12 13 14 15 16 17 18 19 20 21 22 23 24 25 26 27 28 29 30 31 32 33 34 35 36 37 38 39 40 41 42 43 44 45 46 47
000
ASUS45 KCYS 300710
RWRWY

WYOMING REGIONAL WEATHER ROUNDUP
NATIONAL WEATHER SERVICE CHEYENNE WY
100 AM MDT TUE SEP 30 2014

NOTE:  "FAIR" INDICATES FEW OR NO CLOUDS BELOW 12,000 FEET
WITH NO SIGNIFICANT WEATHER AND/OR OBSTRUCTIONS TO VISIBILITY.

WYZ001-300800-
YELLOWSTONE NATIONAL PARK

CITY           SKY/WX    TMP DP  RH WIND       PRES   REMARKS
LK YELLOWSTONE   N/A     38  35  89 CALM      30.02F
W YELLOWSTONE  NOT AVBL

$$
WYZ002>013-054>058-071-098>099-300800-
NORTHERN WYOMING

CITY           SKY/WX    TMP DP  RH WIND       PRES   REMARKS
JACKSON        CLOUDY    43  43 100 SW6       30.00S
CODY           PTCLDY    52  37  58 W9G18     29.82F
GREYBULL       MOCLDY    50  47  89 W6        29.79F
WORLAND        MOCLDY    52  46  80 S5        29.79F
SHERIDAN       CLOUDY    53  50  89 N6        29.77F
BUFFALO        CLOUDY    50  47  89 N7        29.79F
GILLETTE       CLOUDY    52  49  89 CALM      29.75F
HULETT         LGT RAIN  50  50 100 CALM      29.80
NEWCASTLE      HVY RAIN  50  46  87 N20       29.75

$$
WYZ014>020-022>026-101>103-300800-
CENTRAL WYOMING

CITY           SKY/WX    TMP DP  RH WIND       PRES   REMARKS
BIG PINEY      CLOUDY    42  38  85 NE6       30.02F
PINEDALE       CLOUDY    41  39  93 W3        30.03F
DUBOIS         CLOUDY    41  34  75 N16       29.95F
LANDER         MOCLDY    46  36  68 SW6       29.87F
RIVERTON       MOCLDY    48  37  65 NW15      29.85F
CASPER         CLOUDY    52  42  69 W8        29.79F
DOUGLAS        CLOUDY    49  47  93 CALM      29.78F

$$
WYZ021-027>030-104>119-300800-
SOUTHERN WYOMING

CITY           SKY/WX    TMP DP  RH WIND       PRES   REMARKS
EVANSTON       MOCLDY    40  37  89 SW8       30.06S WCI  34
KEMMERER       PTSUNNY   37  37 100 W5        30.06F WCI  34
FORT BRIDGER     N/A     43  39  86 SW10      30.08F
ROCK SPRINGS   PTCLDY    43  37  79 W18       30.01F
DIXON          CLOUDY    46  40  80 W7        30.04S
RAWLINS        CLOUDY    45  38  76 W23G32    29.93F
SARATOGA         N/A     45  37  76 W21G29    29.96F
LARAMIE        CLOUDY    43  40  89 W12       29.89F
CHEYENNE       CLOUDY    46  42  86 W9        29.83F
TORRINGTON     RAIN      50  50 100 W20G31    29.70F
PINE BLUFFS    RAIN      45  45 100 W9        29.81F

$$



USA.gov is the U.S. government's official web portal to all federal, state and local government web resources and services.